Simultaneous Nadir Overpasses (SNOs) Predictions

Prediction of SNOs between LANDSAT-8 and NOAA-19 Satellite Orbit:

Table of predicted SNOs for the next 14.0 days since TLE Epoch: 12/5/2014
Index Date (LANDSAT-8) Time (LANDSAT-8) Lat,Lon (LANDSAT-8) SZA (LANDSAT-8 ) Date (NOAA-19) Time (NOAA-19) Lat,Lon (NOAA-19) SZA (NOAA-19 ) Distance(km) Time Diff (sec)
1 12/06/2014 18:42:20 72.53,-100.35 94.99 12/06/2014 18:41:25 72.55,-100.32 95.01 1.93 55
2 12/06/2014 19:31:49 -72.46, 67.15 85.08 12/06/2014 19:32:29 -72.46, 67.10 85.08 1.75 40
3 12/08/2014 23:26:23 73.21,-170.10 95.93 12/08/2014 23:25:16 73.23,-172.70 95.92 83.46 67
4 12/09/2014 00:16:04 -72.50, -3.84 84.80 12/09/2014 00:16:07 -72.49, -3.84 84.82 1.75 3
5 12/09/2014 01:05:43 71.77, 162.50 94.46 12/09/2014 01:06:49 71.72, 164.95 94.44 85.38 66
6 12/11/2014 05:00:19 -72.53, -74.86 84.58 12/11/2014 04:59:45 -72.53, -74.81 84.58 2.00 34
7 12/11/2014 05:49:46 72.44, 92.62 95.33 12/11/2014 05:50:40 72.42, 92.68 95.32 2.78 54
8 12/13/2014 09:44:33 -72.58,-145.83 84.37 12/13/2014 09:43:23 -72.58,-145.79 84.36 1.37 70
9 12/13/2014 10:34:00 72.49, 21.65 95.55 12/13/2014 10:34:18 72.47, 21.71 95.54 2.52 18
10 12/15/2014 15:18:14 72.52, -49.36 95.70 12/15/2014 15:17:56 72.53, -49.29 95.72 2.82 18
11 12/15/2014 16:07:45 -72.34, 117.96 84.48 12/15/2014 16:08:58 -72.34, 118.34 84.48 12.89 73
12 12/17/2014 20:02:27 72.58,-120.30 95.85 12/17/2014 20:01:34 72.59,-120.29 95.87 1.65 53
13 12/17/2014 20:51:56 -72.51, 47.21 84.22 12/17/2014 20:52:38 -72.51, 47.11 84.22 3.26 42




NCC Satellite Simultaneous Nadir Overpasses (SNOs) Prediction Service
